THOR ABLESTAR DEB, 3744

Orbit data source: Space-Track

THOR ABLESTAR DEB, 3744 is space debris in LEO originally from a launch on Thu, 29 Jun 1961 UTC launched from the Air Force Eastern Test Range (AFETR). Debris objects in space refer to the collection of defunct objects orbiting the Earth. Examples of debris include non-operational satellites, rocket bodies, and fragments generated from explosions, collisions, or faulty payload assembly.

Loading next visibility...
Identifier
3744, 1961-015JC
Orbit
LEO
Country
Flag of USUS
Related business
Manufacturer
Unknown
Mission
Spacecraft
Bus & Motor
Unknown
Mass
Unknown
Launch date (UTC)
1961-06-29 (65 years ago)
Launch vehicle
Unknown
Launch site
Air Force Eastern Test Range (AFETR)
Object type
Payload
Rocket body
Debris
Shape & HBR
Unknown shape, 0.1 m
Radar Cross Section
Small (<0.1 m²)

Expand to show TLE details & history
Last TLE update: 2 days ago

TLE from 2 days ago
0 THOR ABLESTAR DEB
1 03744U 61015JC  26132.18496699  .00001173  00000-0  77971-3 0  9993
2 03744  66.9754 202.0583 0116423 136.5568 224.4765 14.01448399875483
Epoch: 2026-05-12T04:26Z
TLE epoch observation values (Epoch: 2026-05-12T04:26:21.147Z)
Latitude
-0.00005°
Longitude
-94.49281°
Altitude
951.737 km
Speed
7.345 km/s
True Right ascension
13h 28m 13s
True Declination
0° 00' 00"
Sunlit
Object was in full shadow at epoch
Visualization orbit readout
Latitude
Unknown
Longitude
Unknown
Altitude
Unknown
Speed
Unknown
Apparent Right ascension
Unknown
Apparent Declination
Unknown
Sunlit
N/A
Visualization observer readout
Local Sidereal Time
01:55:55
Azimuth
Unknown
Elevation
Unknown
Doppler factor
Unknown
Orbital elements
Apogee altitude
971.733 km
Perigee altitude
802.564 km
Semi-major axis
7,265.286 km
Eccentricity
0.01164
Inclination
66.9754°
RAAN
202.0583°
Arg. of periapsis
136.5568°
True anomaly
223.55145°
Mean anomaly
224.4765°
Eccentric anomaly
224.01302°
Mean motion
3.50481 °/min
Orbital period
102.72 mins
BSTAR
0.00077971
Loading maneuver chart data...
Computing Atmospheric mass density...

Documentation

Showing up to 5 results
|